Regional Weather Roundup
Issued by NWS

Home | Current Version | Previous Version | Text Only | Print | Product List | Glossary On
Versions: 1 2 3 4 5 6 7 8 9 10 11 12 13 14 15 16 17 18 19 20 21 22 23 24 25 26 27 28 29 30 31 32 33 34 35 36 37 38 39 40 41 42 43 44 45 46 47 48 49 50
000
ASUS45 KABQ 221310
RWRNM
WEATHER ROUNDUP FOR NEW MEXICO
NATIONAL WEATHER SERVICE ALBUQUERQUE NM
700 AM MDT FRI AUG 22 2014

NOTE: "FAIR" MEANS FEW OR NO CLOUDS BELOW 12,000 FEET AGL WITH NO
       SIGNIFICANT WEATHER OR OBSTRUCTIONS TO VISION.

      THIS PRODUCT IS RELEASED AS TWO VERSIONS.  ONE VERSION NEAR
      THE TOP OF THE HOUR CONTAINING PRELIMINARY DATA FROM ALBUQUERQUE
      AND OTHER STATIONS.  A FINAL VERSION WITH ADDITIONAL DATA IS
      ISSUED ABOUT 10 MINUTES AFTER THE HOUR.

NMZ501-503-504-510>518-221400-
NORTHWEST PLATEAU/NORTHCENTRAL MOUNTAINS

CITY           SKY/WX    TMP DP  RH WIND       PRES   REMARKS
FARMINGTON     LGT RAIN  59  56  89 E3        30.19R
LOS ALAMOS     LGT RAIN  57  44  60 N6        30.27S
SANTA FE       LGT RAIN  60  48  64 SW7       30.21R
TAOS           CLOUDY    54  34  47 CALM      30.28R
ANGEL FIRE     FAIR      48  42  81 CALM      30.35S

$$
NMZ402-403-502-505>509-221400-
WESTCENTRAL MOUNTAINS/SOUTHWEST MOUNTAINS

CITY           SKY/WX    TMP DP  RH WIND       PRES   REMARKS
GALLUP         PTCLDY    53  52  96 CALM      30.25R
SILVER CITY    CLOUDY    64  57  77 E10       30.22R

$$
NMZ407-409-411-412-221400-
SOUTHERN DESERTS

CITY           SKY/WX    TMP DP  RH WIND       PRES   REMARKS
LORDSBURG      PTSUNNY   64  55  72 CALM      30.13R
DEMING         CLOUDY    66  63  90 NE5       30.15R
LAS CRUCES     DRIZZLE   63  62  96 CALM      30.17R
HOLLOMAN AFB   MOCLDY    66  66 100 S12       30.18R
ALAMOGORDO     LGT RAIN  64  64 100 S10G18    30.21R
T OR C         LGT RAIN  64  62  93 S6        30.18R

$$
NMZ519>523-221400-
CENTRAL VALLEYS/CENTRAL HIGHLANDS

CITY           SKY/WX    TMP DP  RH WIND       PRES   REMARKS
ALBUQUERQUE    CLOUDY    69  47  45 SW9       30.20R
DOUBLE EAGLE   MOCLDY    66  46  48 W15       30.22R
MORIARTY ARPT  PTSUNNY   60  48  65 S7        30.24R
CLINES CORNERS CLOUDY    62  46  55 SW22G30   30.26R
BELEN          RAIN      63  57  81 S8        30.21R
SOCORRO        CLOUDY    64  60  88 S12       30.19R

$$
NMZ524>526-539-540-221400-
SOUTHCENTRAL MOUNTAINS

CITY           SKY/WX    TMP DP  RH WIND       PRES   REMARKS
RUIDOSO        LGT RAIN  59  54  82 S8        30.30R

$$
NMZ527>531-221400-
NORTHEAST HIGHLANDS/NORTHEAST PLAINS

CITY           SKY/WX    TMP DP  RH WIND       PRES   REMARKS
LAS VEGAS      MOCLDY    60  42  51 S10       30.22R
RATON          MOCLDY    63  44  50 E6        30.17S
CLAYTON        CLEAR     67  48  50 W8        30.09R

$$
NMZ532>537-221400-
EASTCENTRAL PLAINS

CITY           SKY/WX    TMP DP  RH WIND       PRES   REMARKS
TUCUMCARI      MOCLDY    75  57  53 W8        30.05R
CANNON AFB     PTCLDY    70  61  74 S6        30.10R
CLOVIS AIRPORT   N/A     66  61  82 SW6       30.12R

$$
NMZ028-029-538-221400-
SOUTHEAST PLAINS

CITY           SKY/WX    TMP DP  RH WIND       PRES   REMARKS
ROSWELL        PTCLDY    74  59  59 S7        30.05R
ARTESIA        MOCLDY    75  57  53 SW10G17   30.08R
CARLSBAD       MOCLDY    78  59  51 W15       30.06R
HOBBS          CLEAR     70  63  78 S8        30.11R


$$



USA.gov is the U.S. government's official web portal to all federal, state and local government web resources and services.